📊 Raw Sensor Data
Showing records 51426 to 51450 of 85,148 total
| ID | Distance (ft) | Battery V | Battery A | Int Temp (°F) | Int Humid (%) | Ext Temp (°F) | Solar V | RSSI | SNR | Time Stamp |
|---|---|---|---|---|---|---|---|---|---|---|
| 33735 | 15.0 | 3.89 | -5 | 40 | 38 | 43 | 0.00 | -77 | 8 | 03/01/2025 04:30 AM |
| 33734 | 15.0 | 3.89 | -5 | 40 | 38 | 43 | 0.00 | -76 | 8 | 03/01/2025 04:15 AM |
| 33733 | 14.9 | 3.95 | -5 | 42 | 38 | 42 | 0.00 | -76 | 8 | 03/01/2025 04:00 AM |
| 33732 | 14.9 | 3.90 | -5 | 44 | 38 | 46 | 0.00 | -76 | 8 | 03/01/2025 03:30 AM |
| 33731 | 14.9 | 3.90 | -5 | 42 | 38 | 47 | 0.00 | -76 | 8 | 03/01/2025 03:15 AM |
| 33730 | 15.0 | 3.90 | -5 | 43 | 38 | 46 | 0.00 | -76 | 9 | 03/01/2025 03:00 AM |
| 33729 | 14.9 | 3.90 | -5 | 43 | 38 | 46 | 0.00 | -76 | 8 | 03/01/2025 02:45 AM |
| 33728 | 14.9 | 3.96 | -5 | 44 | 38 | 47 | 0.00 | -77 | 8 | 03/01/2025 02:30 AM |
| 33727 | 14.9 | 3.90 | -5 | 44 | 38 | 46 | 0.00 | -76 | 8 | 03/01/2025 02:15 AM |
| 33726 | 15.0 | 3.90 | -5 | 43 | 38 | 47 | 0.00 | -77 | 8 | 03/01/2025 02:00 AM |
| 33725 | 14.8 | 3.90 | -5 | 43 | 38 | 47 | 0.10 | -77 | 7 | 03/01/2025 01:45 AM |
| 33724 | 14.9 | 3.90 | -5 | 44 | 38 | 48 | 0.00 | -76 | 9 | 03/01/2025 01:30 AM |
| 33723 | 14.9 | 3.90 | -5 | 44 | 38 | 45 | 0.00 | -76 | 9 | 03/01/2025 01:00 AM |
| 33722 | 14.8 | 3.90 | -5 | 45 | 38 | 47 | 0.00 | -76 | 8 | 03/01/2025 12:45 AM |
| 33721 | 14.8 | 3.96 | -5 | 45 | 38 | 48 | 0.00 | -76 | 8 | 03/01/2025 12:30 AM |
| 33720 | 14.8 | 3.96 | -5 | 46 | 38 | 49 | 0.10 | -76 | 8 | 03/01/2025 12:00 AM |
| 33719 | 14.8 | 3.91 | -5 | 47 | 38 | 49 | 0.00 | -76 | 8 | 02/28/2025 11:45 PM |
| 33718 | 14.8 | 3.96 | -5 | 47 | 38 | 49 | 0.10 | -76 | 8 | 02/28/2025 11:30 PM |
| 33717 | 14.8 | 3.91 | -5 | 47 | 39 | 49 | 0.00 | -76 | 8 | 02/28/2025 11:15 PM |
| 33716 | 14.8 | 3.97 | -5 | 47 | 39 | 49 | 0.00 | -77 | 8 | 02/28/2025 11:00 PM |
| 33715 | 14.8 | 3.91 | -5 | 48 | 39 | 51 | 0.00 | -76 | 8 | 02/28/2025 10:45 PM |
| 33714 | 14.8 | 3.97 | -5 | 48 | 39 | 50 | 0.00 | -76 | 8 | 02/28/2025 10:30 PM |
| 33713 | 14.9 | 3.91 | -5 | 50 | 39 | 50 | 0.00 | -76 | 8 | 02/28/2025 10:15 PM |
| 33712 | 14.8 | 3.91 | -5 | 51 | 38 | 53 | 0.00 | -77 | 7 | 02/28/2025 10:00 PM |
| 33711 | 14.9 | 3.91 | -5 | 52 | 38 | 53 | 0.00 | -76 | 8 | 02/28/2025 09:45 PM |